User: anonymous   Login
Location: Beaurecueil
(43.5122°N, 5.5450°E)
Time: 15:31:54
(UTC+00:00)
Language:

Ariane Rocket - Orbit

View from above orbital plane
View from above orbital plane
View from above satellite
View from above satellite

Ground track
Ground track

The orbit data is extracted from the following two-line orbital elements,

1 23561U 95021B   20340.13759899  .00000069  00000-0  37797-4 0  9996
2 23561  98.7036  21.7677 0008005 106.7288 315.0038 14.37996722343322
Epoch (UTC): 05 December 2020 03:18:08
Eccentricity: 0.0008005
inclination: 98.7036°
perigee height: 759 km
apogee height: 771 km
right ascension of ascending node: 21.7677°
argument of perigee: 106.7288°
revolutions per day: 14.37996722
mean anomaly at epoch: 315.0038°
orbit number at epoch: 34332

The dashed part of the orbit path shows where the satellite is in the earth's shadow,  

DLR